Regional Weather Roundup
Issued by NWS Memphis, TN

Home | Current Version | Previous Version | Text Only | Print | Product List | Glossary On
Versions: 1 2 3 4 5 6 7 8 9 10 11 12 13 14 15 16 17 18 19 20 21 22 23 24 25 26 27 28 29 30 31 32 33 34 35 36 37 38 39 40 41 42 43 44 45 46 47 48 49 50
062
ASUS44 KMEG 291910
RWRMEG
MEMPHIS CWA HOURLY WEATHER ROUNDUP
NATIONAL WEATHER SERVICE MEMPHIS TN
200 PM CDT WED MAR 29 2017

...WEST TENNESSEE...

CITY           SKY/WX    TMP DP  RH WIND       PRES   REMARKS
MEMPHIS INTL   PTSUNNY   82  59  45 S14G23    29.88F
NWS MEMPHIS      N/A     81 N/A N/A MISG        N/A
JACKSON        PTSUNNY   79  60  52 SW10      29.93F
SOMERVILLE     SUNNY     81  59  47 S13G22    29.89F
BOLIVAR        SUNNY     81  59  47 S10G20    29.91F
SAVANNAH       PTSUNNY   79  64  61 S6        29.95F
DYERSBURG      PTSUNNY   78  62  57 SE13G18   29.89F
PARIS          SUNNY     73  57  56 VRB3      29.97F
HUNTINGDON     MOSUNNY   77  63  61 S7        29.94F


...EASTERN ARKANSAS...

CITY           SKY/WX    TMP DP  RH WIND       PRES   REMARKS
JONESBORO      CLOUDY    78  63  59 S20G26    29.84F
WEST MEMPHIS   CLOUDY    80  62  54 S20G29    29.85F
BATESVILLE     CLOUDY    77  61  57 SE10G17   29.81F
NEWPORT        MOSUNNY   77  64  64 SE21G26   29.82F
WALNUT RIDGE   MOSUNNY   77  63  61 SE18      29.82F
BLYTHEVILLE    MOSUNNY   79  63  57 SE14G21   29.87F
SEARCY         CLOUDY    77  66  68 S17       29.83R
STUTTGART      CLOUDY    79  57  47 SE17G24   29.83S
PINE BLUFF     MOSUNNY   79  62  56 S20G26    29.81F
MONTICELLO       N/A     80  60  50 S18G28    29.84F


...NORTH MISSISSIPPI...

CITY           SKY/WX    TMP DP  RH WIND       PRES   REMARKS
TUPELO         MOSUNNY   80  61  52 SE12      29.96F
OXFORD         MOSUNNY   81  55  41 S15G23    29.92F
BATESVILLE     PTSUNNY   83  56  40 S15G21    29.90F
OLIVE BRANCH   PTSUNNY  N/A N/A N/A S14G23    29.88F
TUNICA         PTSUNNY   81  59  47 S22G29    29.87F
CORINTH        MOSUNNY   79  59  50 S9        29.95F
GREENWOOD      MOSUNNY   82  59  45 S21G28    29.91F
COLUMBUS       MOSUNNY   81  64  55 S8        29.96F
STARKVILLE     MOSUNNY   81  61  50 SW7       29.97F
GOLDEN TRIANGL PTSUNNY   81  59  47 S12G18    29.93F


...SOUTHEAST MISSOURI...

CITY           SKY/WX    TMP DP  RH WIND       PRES   REMARKS
KENNETT        MOSUNNY   77  64  65 SE15G22   29.86F
MALDEN         CLOUDY    73  63  68 SE15      29.88F
WEST PLAINS    CLOUDY    68  58  70 SE12G21   29.83S
POPLAR BLUFF   CLOUDY    70  62  76 SE13      29.86F
CAPE GIRARDEAU CLOUDY    69  57  65 SE14      29.91F


...NORTHWEST ALABAMA...

CITY           SKY/WX    TMP DP  RH WIND       PRES   REMARKS
MUSCLE SHOALS  MOSUNNY   80  63  55 SE3       29.99F


...MIDDLE TENNESSEE...

CITY           SKY/WX    TMP DP  RH WIND       PRES   REMARKS
NASHVILLE      MOSUNNY   78  53  41 VRB7      30.02F
CLARKSVILLE    PTSUNNY   73  56  54 E7        30.00F
COLUMBIA       PTSUNNY   79  61  53 SW3       29.98F


...WESTERN KENTUCKY...

CITY           SKY/WX    TMP DP  RH WIND       PRES   REMARKS
PADUCAH        CLOUDY    72  56  57 E10       29.94F
FORT CAMPBELL  MOSUNNY   72  58  62 E9        30.00F


...CENTRAL ARKANSAS...

CITY           SKY/WX    TMP DP  RH WIND       PRES   REMARKS
LITTLE ROCK    CLOUDY    77  64  64 SE25G31   29.77F


SKY/WX REPORTED AS FAIR MEANS FEW OR NO CLOUDS BELOW
12 THOUSAND FEET.





USA.gov is the U.S. government's official web portal to all federal, state and local government web resources and services.